This demonstration page uses our WeatherBlox Daily Observations layout. Learn more.

Left ArrowRight Arrow

39.01783, -85.05884

Hourly Observations for October 14, 2015

Temp ( °F °C ) Dew Point ( °F °C ) Humidity (%) Winds ( mph kmh ) Pressure ( in mb ) Visibility ( mi km ) Precip ( " mm )
12:52 am 00:52 Clear 50 10 45 7.2 83 83 W 3 6 29.87 1012 10 16 N/A
1:52 am 01:52 Clear 52 11.1 45 7.2 77 77 NNE 6 9 29.85 1011 10 16 N/A
2:52 am 02:52 Clear 47 8.3 43 6.1 86 86 W 3 6 29.87 1011 10 16 N/A
3:52 am 03:52 Clear 45 7.2 43 6.1 93 93 N N/A 29.86 1011 9 14 N/A
4:52 am 04:52 Clear 44 6.7 43 6.1 96 96 N N/A 29.87 1012 8 13 N/A
5:52 am 05:52 Clear 44 6.7 43 6.1 96 96 S 3 6 29.86 1011 7 11 N/A
6:52 am 06:52 Clear with Mist and Fog 42 5.6 41 5 96 96 N N/A 29.89 1012 6 10 N/A
7:52 am 07:52 Partly Cloudy with Patchy Fog 43 6.1 42 5.6 97 97 S 3 6 29.89 1012 5 8 N/A
8:52 am 08:52 Mostly Cloudy 48 8.9 46 7.8 93 93 SW 3 6 29.91 1013 8 13 N/A
9:52 am 09:52 Mostly Cloudy 51 10.6 46 7.8 83 83 W 8 13 29.93 1014 10 16 N/A
10:52 am 10:52 Mostly Sunny 56 13.3 45 7.2 67 67 WNW 10 17 29.93 1014 10 16 N/A
11:52 am 11:52 Sunny 59 15 46 7.8 62 62 W 12 19 29.95 1014 10 16 N/A
12:52 pm 12:52 Mostly Sunny 62 16.7 45 7.2 54 54 WNW 12 19 29.95 1014 10 16 N/A
1:52 pm 13:52 Mostly Sunny 64 17.8 45 7.2 50 50 NNW 12 19 29.94 1014 10 16 N/A
2:52 pm 14:52 Mostly Sunny 66 18.9 43 6.1 43 43 WNW 15 24 29.93 1014 10 16 N/A
3:52 pm 15:52 Mostly Sunny 66 18.9 39 3.9 37 37 WNW 16 26 29.94 1014 10 16 N/A
4:52 pm 16:52 Mostly Sunny 66 18.9 38 3.3 36 36 W 17 28 29.96 1015 10 16 N/A
5:52 pm 17:52 Sunny 65 18.3 38 3.3 37 37 WNW 10 17 29.96 1015 10 16 N/A
6:52 pm 18:52 Sunny 61 16.1 39 3.9 44 44 NW 8 13 29.98 1015 10 16 N/A
7:52 pm 19:52 Clear 56 13.3 39 3.9 53 53 WNW 5 7 30.01 1016 10 16 N/A
8:52 pm 20:52 Clear 50 10 42 5.6 74 74 N N/A 30.03 1017 10 16 N/A
9:52 pm 21:52 Clear 50 10 39 3.9 66 66 WNW 3 6 30.04 1017 10 16 N/A
10:52 pm 22:52 Clear 49 9.4 40 4.4 71 71 NW 3 6 30.05 1018 10 16 N/A
11:52 pm 23:52 Clear 53 11.7 37 2.8 55 55 NNW 6 9 30.05 1018 10 16 N/A

Powered by AerisWeather